Вернуться в каталог

ONEWEB-0277

АктивенСвязьPO
NORAD 48995·PAYLOAD·🇬🇧 United Kingdom

Запущен Jul 1, 2021 с Vostochny Cosmodrome

Loading…

Ближайшие Пролёты (ближайшие 24 часа)

TLE

СвежийSource: CelesTrak SupGP

Эпоха: Sep 14, 2026, 19:19 UTC

1 48995C 21060AE  26257.80539769  .00002919  00000+0  76459-2 0  2573
2 48995  87.9144 210.9847 0002099  75.5512 311.2786 13.16591209    12

Отслеживайте ONEWEB-0277 в реальном времени с AllMySat

Download on the App Store